Terug naar catalogus

FENGYUN 1C DEB

ActiefSSO
NORAD 31244·DEBRIS·🇨🇳 China

Gelanceerd May 10, 1999 vanaf Taiyuan Satellite Launch Center

Loading…

Volgende Passages (komende 24 uur)

TLE

VerouderendSource: Space-Track

Epoch: Sep 5, 2026, 09:44 UTC

1 31244U 99025BMA 26248.40561761  .00000602  00000-0  37186-3 0  9997
2 31244  99.0050 316.0461 0102431 150.4338 210.2676 14.06587887613889

Volg FENGYUN 1C DEB in realtime met AllMySat

Download on the App Store